カタログに戻る

STARLINK-35324

運用中通信VLEO
NORAD 65838·PAYLOAD·🇺🇸 United States

打ち上げ Sep 29, 2025 から Vandenberg Space Force Base

Loading…

次のパス (今後24時間)

TLE

最新Source: CelesTrak SupGP

元期: Sep 14, 2026, 22:33 UTC

1 65838C 25221R   26257.94006944  .00049616  00000+0  14662-2 0  2573
2 65838  53.1579 287.3636 0001262  92.2881 344.0018 15.34360027    10

AllMySatでSTARLINK-35324をリアルタイム追跡

Download on the App Store